Buffalo, WY

3:22 PM MDT on October 01, 2014 (GMT -0600)
Esponda Ranch | Change Station
CLOSE
Current Station
Personal Weather Station
Location: Buffalo, WY
Elevation: 4665 ft
Nearby Weather Stations

Elev 4665 ft 44.32 °N, 106.67 °W | Updated 12 minutes ago

Overcast
Overcast
49.4 °F
Feels Like 49 °F
N
0.0
Wind Variable Wind from NNE
Gusts 5.0 mph

Today
High -- | Low -- °F
--% Chance of Precip.
Yesterday
High -- | Low -- °F
Precip. -- in
7:04 AM 6:47 PM
Waxing Crescent, 51% visible
Pressure 29.62 in
Visibility 10.0 miles
Clouds Mostly Cloudy 7000 ft
Overcast 8500 ft
Windchill 49 °F
Dew Point 41 °F
Humidity 73%
Rainfall 0.10 in
Snow Depth 0 in , 4 in , 0 in
UV 1 out of 12
Pollen 3.40 out of 12
Air Quality Not available.
Flu Activity Not available.
METAR KBYG 302053Z AUTO 34015G24KT 10SM BKN070 OVC085 13/05 A2971 RMK AO2 RAB36E50 SLP030 P0000 60000 T01280050 56006

More Conditions Fewer Conditions

Pressure 29.62 in
Visibility 10.0 miles
Clouds Mostly Cloudy 7000 ft
Overcast 8500 ft
Windchill 49 °F
Dew Point 41 °F
Humidity 73%
Rainfall 0.10 in
Snow Depth 0 in , 4 in , 0 in
UV 1 out of 12
Pollen 3.40 out of 12
Air Quality Not available.
Flu Activity Not available.
METAR KBYG 302053Z AUTO 34015G24KT 10SM BKN070 OVC085 13/05 A2971 RMK AO2 RAB36E50 SLP030 P0000 60000 T01280050 56006

More Conditions Fewer Conditions

10-Day Weather Forecast

Almanac

Astronomy

Oct. 01, 2014 Rise Set
Actual Time 7:04 AM MDT 6:47 PM MDT
Civil Twilight 6:35 AM MDT 7:16 PM MDT
Nautical Twilight 6:02 AM MDT 7:49 PM MDT
Astronomical Twilight 5:27 AM MDT 8:23 PM MDT
Moon 2:17 PM MDT No Moon Set
Length of Visible Light 12h 40m
Length of Day
11h 42m
Tomorrow will be 3m 2s shorter.
Waxing Crescent, 51% of the Moon is Illuminated
Today
Waxing Crescent
Oct 8
Full
Oct 15
Last Quarter
Oct 23
New
Oct 30
First Quarter

Today's Extremes

State Highs State Lows

Community

WunderPhotos

Upload Photos

1,758,058 photos uploaded!

WunderBlogs® & News

By Dr. Jeff Masters
Director of Meteorology, Weather Underground
By Kari Strenfel
Meteorologist, Weather Underground
By Christopher C. Burt
Weather Historian, Weather Underground
October 1, 2014
October 1, 2014
October 1, 2014

Nearby

Snow Depth

Station Depth Elevation
Granite Creek 0 in 6770 ft
Two Ocean Plateau 4 in 9240 ft
East Rim Divide 0 in 7930 ft
New Fork Lake 0 in 8340 ft
Loomis Park 0 in 8240 ft

Earthquake Activity

City Distance Mag. Time & Date
No recent earthquake activity has been reported nearby.
Minimum magnitude displayed is 2.5.

Coastal Water Temperatures

Place Temperature
No Stations Reporting

Nearby Weather Stations